Other Surface Observations
Issued by NWS Tucson, AZ

Home | Current Version | Previous Version | Text Only | Print | Product List | Glossary On
Versions: 1 2 3 4 5 6 7 8 9 10 11 12 13 14 15 16 17 18 19 20 21 22 23 24 25 26 27 28 29 30 31 32 33 34 35 36 37 38 39 40 41 42 43 44 45 46 47 48 49 50
000
SXUS55 KTWC 302315
OSOTWC

WEATHER ROUNDUP FOR SOUTHEAST ARIZONA
NATIONAL WEATHER SERVICE TUCSON AZ
415 PM MST MON MAY 30 2016

AZZ504>506-514-310015-
LOCATION       SKY/WX    TMP DP  RH WIND       PRES   REMARKS
TUCSON         SUNNY     93  19   7 W13G21    29.85F
DAVIS-MONTHAN  SUNNY     92  16   6 W8G23     29.83F
CHILDRENS PARK N/A      N/A N/A   6 W7                PIMA CO DEQ
ALVERNON/22ND  N/A       92 N/A N/A SW8               PIMA CO DEQ
CHERRY/GLENN   N/A      N/A N/A N/A N/A               PIMA CO DEQ
TANGERINE      N/A       92 N/A N/A W8                PIMA CO DEQ
CONTL RANCH    N/A       94  17   6 W7                PIMA CO DEQ
GRANT/1ST      N/A       92  19   7 SW0               PIMA CO DEQ
CRAYCROFT/22ND N/A       92  19   7 SW9               PIMA CO DEQ
GOLFLINKS/KOLB N/A      N/A N/A N/A N/A               PIMA CO DEQ
AJO/12TH       N/A       92  22   8 SW7               PIMA CO DEQ
SAGUARO EAST   N/A       32 -21   8 W12               PIMA CO DEQ
FAIRGROUNDS    N/A       90 N/A N/A SW16              PIMA CO DEQ
SAGUARO        N/A       94  17   6 SW6G19            *SABINO CYN
SAN CARLOS     N/A       93  20   7 SW10G19           *SAN CARLOS
GREEN VALLEY   N/A       90  21   8 SW11              PIMA CO DEQ
HORSE CAMP CYN N/A       87  24  10 W12G23            *ARAVAIPA CYN
RINCON MTNS    N/A       71  18  13 SW4G16            *NR MANNING CAMP
$$

AZZ509>511-310015-
LOCATION       SKY/WX    TMP DP  RH WIND       PRES   REMARKS
SAFFORD        SUNNY     91  30  11 SW9G21    29.81F
STRAY HORSE    N/A       70  22  16 SW10G25           *
TRAIL CABIN    N/A       80  28  15 W7G19             *N OF GRANVILLE
BLACK HILLS    NOT AVBL
DRY LAKE       N/A       68  29  23 W3G13             *NATANES MTNS
NOON CREEK     N/A       84  30  14 N5G15             *PINALENO MTNS
COLUMBINE      N/A       61  30  31 SW6G18            *PINALENO MTNS
GUTHRIE        N/A       74  37  26 SW12G26           *SW OF GUTHRIE
$$

AZZ502-503-513-310015-
LOCATION       SKY/WX    TMP DP  RH WIND       PRES   REMARKS
NOGALES        SUNNY     87  28  12 S20G25    29.93F
SELLS          N/A       92  11   5 NE7G17            *
SASABE         N/A       88  16   7 SW14G23           *ALTAR VLY
HOPKINS        N/A       78  25  14 W8G20             *SANTA RITA MTNS
CARR CYN       N/A       79  36  21 S4G13             *W OF HEREFORD
$$

AZZ507-508-512-310015-
LOCATION       SKY/WX    TMP DP  RH WIND       PRES   REMARKS
SIERRA VISTA   MOSUNNY   84  30  14 SW21G26   29.98F
DOUGLAS        MOSUNNY   87  39  18 S20G29    29.91F
EMPIRE MTNS    NOT AVBL
MULESHOE RANCH N/A       87  30  13 NW9G22            *PRESERVE
HEADQUARTERS   N/A       82  36  19 W10G23            *CHIRICAHUA MTNS
$$

.............................NOTES.............................
THIS IS AN AUTOMATED COLLECTIVE WITH MINIMAL QUALITY CONTROL.
PIMA CO DEQ SITES HAVE NONSTANDARD WIND SENSOR HEIGHTS.
PIMA CO DEQ SITES DO NOT REPORT WIND GUSTS.
* INDICATES WIND SENSORS LOCATED AT 20 FEET INSTEAD OF 33 FEET.
..............................KEY..............................
SKY/WX - SKY CONDITION/WEATHER
TMP    - TEMPERATURE IN FAHRENHEIT
DP     - DEWPOINT IN FAHRENHEIT
RH     - RELATIVE HUMIDITY IN PERCENT
WIND   - DIRECTION AND SPEED IN MILES PER HOUR (MPH)
VRB    - VARIABLE WIND DIRECTION
PRES   - MEAN SEA LEVEL PRESSURE IN INCHES OF MERCURY
         F - FALLING PRESSURE   R - RISING PRESSURE
         S - STEADY PRESSURE
VSB    - VISIBILITY IN MILES
HX     - HEAT INDEX IN FAHRENHEIT
WCI    - WIND CHILL INDEX IN FAHRENHEIT
N/A    - NOT AVAILABLE
AFB    - AIR FORCE BASE
         DAVIS-MONTHAN IS DAVIS-MONTHAN AIR FORCE BASE
CYN    - CANYON
MTNS   - MOUNTAINS
NCA    - NATIONAL CONSERVATION AREA
NR     - NEAR
VLY    - VALLEY
CONTL  - CONTINENTAL
PIMA CO DEQ - PIMA COUNTY DEPT OF ENVIRONMENTAL QUALITY



USA.gov is the U.S. government's official web portal to all federal, state and local government web resources and services.